星链-35854(STARLINK-35854)

导读

STARLINK-35854(NORAD编号68214)是美国SpaceX公司星链(Starlink)卫星互联网星座的一颗卫星,属于星链大规模组网部署中的单元。星链项目旨在通过近地轨道低轨卫星星座为全球提供高速低延迟互联网覆盖,重点服务地面网络未覆盖的偏远区域、海洋、航空等场景,同时也支持军事与应急通信需求。该卫星运行在近地轨道,星链卫星普遍配备相控阵天线,部分新一代型号搭载激光星间链路,以提升通信容量与传输效率,目前和其他数千颗星链卫星共同在轨,为全球用户提供卫星互联网接入服务。

基本信息
目录编号:
68214
目录名称:
STARLINK-35854
国际标识:
2026-053H
轨道中心:
EARTH
卫星名称:
星链-35854
卫星全名:
星链-35854(STARLINK-35854)
卫星状态:
在轨 (已飞行133 天)
发射日期:
2026-03-17 UTC
国别 :
美国 (US)
星等 :
--
轨道信息
数据来源 国际轨道数据 AOE轨道数据
星历时间 2026-07-27T22:38:03+0800
10小时前
查看轨道信息
2026-07-23T00:00:00+0800
5天前
查看轨道信息
半长轴 6843.648km 6843.681km
偏心率 0.0001648 0.0002041
轨道倾角 97.286° 97.281°
近地点辐角 98.662° 136.035°
升交点赤经 83.191° 78.316°
平近点角 261.481° 314.142°
近地点 464.383km 464.147km
远地点 466.639km 466.941km
周期 93.906分钟 93.906分钟
每日圈数 15.334561 15.334449
详细信息
固有亮度:
5
最大亮度:
2.5
卫星平台:
Starlink V1.0
覆盖范围:
全球
运营商:
太空探索技术公司
运营商所在国:
美国
制造商(研发单位):
太空探索技术公司
制造商所在国:
美国
使用方式:
暂无
卫星简介
Starlink 计划是 SpaceX 推出的全球卫星互联网项目,通过发射低轨道卫星,为全球尤其是偏远地区提供高速、低延迟的互联网服务。自 2019 年起,Starlink 已部署数千颗卫星,旨在缩小全球数字鸿沟,推动互联网普及。该项目还为军事、航空等行业提供通信支持,带来广泛经济效益。
2D轨道图
3D轨道图
轨道高度分析图
轨道倾角分析图
轨道综合分析图
查看轨道综合分析图